Location: *
(60.1759°S, 155.0663°W)
Time: 07:28:57
(UTC+00:00)

Cosmos 1674 Rocket - Pass Details

Date: 17 September 2019
Orbit: 603 x 630 km, 82.5° (Epoch: 20 October)

Event Time Altitude Azimuth Distance (km) Brightness Sun altitude
Rises 15:01:04 0° 195° (SSW) 2,975 7.1 -11.0°
Reaches altitude 10° 15:03:20 10° 193° (SSW) 2,059 6.3 -10.7°
Maximum altitude 15:07:56 83° 104° (ESE) 657 3.8 -10.2°
Drops below altitude 10° 15:12:27 10° 16° (NNE) 2,027 6.3 -9.6°
Sets 15:14:40 0° 15° (NNE) 2,924 7.1 -9.3°
